User: anonymous   Login
Location: Sandbanks Provincial Park
(47.6073°N, 57.6428°W)
Time: 15:37:21
(UTC-02:-30)
Language:

Cosmos 2034 Rocket - Orbit

View from above orbital plane
View from above orbital plane
View from above satellite
View from above satellite

Ground track
Ground track

The orbit data is extracted from the following two-line orbital elements,

1 20150U 89059B   16181.10765810 -.00000029  00000-0 -46028-4 0  9991
2 20150  82.9385 356.0190 0028795 185.7856 312.0677 13.75619519351844
Epoch (UTC): 29 June 2016 02:35:01
Eccentricity: 0.0028795
inclination: 82.9385°
perigee height: 958 km
apogee height: 1000 km
right ascension of ascending node: 356.0190°
argument of perigee: 185.7856°
revolutions per day: 13.75619519
mean anomaly at epoch: 312.0677°
orbit number at epoch: 35184

The dashed part of the orbit path shows where the satellite is in the earth's shadow,  

DLR